pace.edu alexa rank chart, pace.edu alexa rank daily changes

pace.edu alexa rank chart, pace.edu alexa rank daily changes

pace.edu
Actual rank:
28 326

RANK HISTORY

Date Rank Diff
2017/06/22 28 326 -23
2017/06/21 28 349 +265
2017/06/20 28 084 -88
2017/06/19 28 172 -61
2017/06/18 28 233 +177
2017/06/17 28 056 -259
2017/06/16 28 315 +21
2017/06/15 28 294 +110
2017/06/14 28 184 -102
2017/06/13 28 286 +208
2017/06/12 28 078 +557
2017/06/11 27 521 +255
2017/06/10 27 266 +690
2017/06/09 26 576 +245
2017/06/08 26 331 -35
2017/06/07 26 366 +209
2017/06/06 26 157 +393
2017/06/05 25 764 +697
2017/06/04 25 067 +148
2017/06/03 24 919 +321
2017/06/02 24 598 -38
2017/06/01 24 636 +128
2017/05/31 24 508 +50
2017/05/30 24 458 +301
2017/05/29 24 157 +262
2017/05/28 23 895 +559
2017/05/27 23 336 +147
2017/05/26 23 189 +235
2017/05/25 22 954 +302
2017/05/24 22 652 +94
2017/05/23 22 558 +172
2017/05/22 22 386 +223
2017/05/21 22 163 +69
2017/05/20 22 094 +258
2017/05/19 21 836 +296
2017/05/18 21 540 +233
2017/05/17 21 307 -158
2017/05/16 21 465 +8
2017/05/15 21 457 -83
2017/05/14 21 540 +139
2017/05/13 21 401 +170
2017/05/12 21 231 -9
2017/05/11 21 240 -48
2017/05/10 21 288 -258
2017/05/09 21 546 -38
2017/05/08 21 584 +190
2017/05/07 21 394 +177
2017/05/06 21 217 +62
2017/05/05 21 155 -78
2017/05/04 21 233 +89
2017/05/03 21 144 -346
2017/05/02 21 490 -129
2017/05/01 21 619 +347
2017/04/30 21 272 +162
2017/04/29 21 110 +35
2017/04/28 21 075 -269
2017/04/27 21 344 -200
2017/04/26 21 544 -111
2017/04/25 21 655 -55
2017/04/24 21 710 +199
2017/04/23 21 511

WIDGET FOR YOUR SITE

DOMAINS WITH THE NEAREST RANK

Domain Rank
visajourney.com 28 321
hostingadvice.com 28 322
lol-share.com 28 323
t6k.co 28 324
freenas.org 28 325
pace.edu 28 326
emulator-zone.com 28 327
bookoo.com 28 328
dnevno.hr 28 329
mona.co 28 330
playcapt.com 28 331

DOMAINS WITH THE NEAREST RANK BY TLD .edu

Domain Rank
swarthmore.edu 27 451
calstatela.edu 27 692
boisestate.edu 27 775
aiu.edu 28 013
calstate.edu 28 317
pace.edu 28 326
universityofcalifornia.edu 28 482
montana.edu 28 528
open.edu 28 591
uncw.edu 28 603
cccs.edu 28 607